Date,TemperatureHighF,TemperatureAvgF,TemperatureLowF,DewpointHighF,DewpointAvgF,DewpointLowF,HumidityHigh,HumidityAvg,HumidityLow,PressureMaxIn,PressureMinIn,WindSpeedMaxMPH,WindSpeedAvgMPH,GustSpeedMaxMPH,PrecipitationSumIn
2013-9-1,90,78,61,75,69,57,93,74,55,29.94,29.68,14,2,15,0.00
2013-9-2,86,71,55,65,60,54,97,72,39,30.05,29.93,9,1,9,0.00
2013-9-3,89,73,54,65,60,53,98,68,35,30.06,29.95,9,1,9,0.00
2013-9-4,90,74,56,65,60,54,97,65,34,30.11,29.99,10,1,11,0.00
2013-9-5,92,78,63,69,64,60,93,66,39,30.11,29.99,10,2,11,0.00
2013-9-6,97,82,67,69,66,63,87,62,37,30.04,29.87,12,3,13,0.00
2013-9-7,101,85,70,70,67,63,84,58,31,29.91,29.80,11,2,13,0.00
2013-9-8,100,84,71,71,66,62,81,56,31,29.84,29.73,12,2,13,0.00
2013-9-9,96,84,73,68,62,54,68,50,26,29.85,29.77,19,5,22,0.00
2013-9-10,95,83,71,68,63,58,72,53,33,30.00,29.84,20,4,20,0.00
2013-9-11,95,81,68,69,64,59,88,59,39,30.05,29.93,12,3,15,0.00
2013-9-12,76,72,69,72,69,64,98,92,81,30.11,30.01,9,1,9,0.27
2013-9-13,78,68,61,64,54,50,83,62,41,30.13,29.98,15,3,15,0.00
2013-9-14,85,71,58,65,58,52,81,65,49,30.02,29.85,12,3,15,0.00
2013-9-15,91,75,66,70,65,62,92,73,46,30.07,29.86,19,3,19,0.20
2013-9-16,66,63,61,64,62,60,99,98,91,30.15,30.05,11,3,13,0.02
2013-9-17,85,72,64,71,67,64,100,88,61,30.12,29.85,15,4,17,0.01
2013-9-18,94,80,69,71,67,63,93,68,37,29.89,29.69,24,6,27,0.00
2013-9-19,92,78,66,71,66,60,85,69,44,29.93,29.68,23,6,24,0.01
2013-9-20,74,63,49,59,51,47,94,69,41,30.07,29.92,14,3,16,0.00
2013-9-21,84,64,44,58,51,43,99,68,33,30.03,29.86,11,2,13,0.00
2013-9-22,81,66,52,57,52,49,94,64,35,29.91,29.76,18,4,20,0.00
2013-9-23,80,68,54,56,53,50,85,61,39,29.79,29.65,27,9,29,0.00
2013-9-24,77,66,53,59,55,50,94,69,49,29.87,29.72,22,4,24,0.00
2013-9-25,84,66,48,60,55,47,98,72,40,29.91,29.71,16,4,18,0.00
2013-9-26,91,76,63,64,60,57,83,60,36,29.75,29.66,26,11,28,0.00
2013-9-27,88,77,66,66,61,58,78,59,44,29.81,29.69,25,10,28,0.00
2013-9-28,76,63,47,69,53,44,95,73,40,30.08,29.66,22,6,26,0.47
2013-9-29,76,58,41,55,45,40,99,69,30,30.10,29.91,11,2,12,0.00
2013-9-30,82,64,48,56,52,46,96,68,36,29.93,29.75,15,4,22,0.00